Weather History for KORE - November, 2012

Change the Weather History Date:

Saturday, November 3, 2012

  Actual Average Record
Temperature  
Mean Temperature 41 °F -  
Max Temperature 48 °F 50 °F 70 °F (2003)
Min Temperature 30 °F 30 °F 19 °F (2008)
Degree Days  
Heating Degree Days 24    
Moisture  
Dew Point 31 °F    
Average Humidity 66    
Maximum Humidity 85    
Minimum Humidity 52    
Precipitation  
Precipitation 0.00 in - - ()
Sea Level Pressure  
Sea Level Pressure 29.75 in    
Wind  
Wind Speed 6 mph (NW)    
Max Wind Speed 15 mph    
Max Gust Speed 20 mph    
Visibility 10 miles    
Events      
Averages and records for this station are not official NWS values.
T = Trace of Precipitation, MM = Missing Value Source: NWS Daily Summary

Daily Weather History Graph

Daily Weather History Graph

Search for Another Location

Airport or City:

Trip Planner

Search our weather history database for the weather conditions in past years. The results will help you decide how hot, cold, wet, or windy it might be!

Date:

Astronomy

Nov. 03, 2012 Rise Set
Actual Time 7:25 AM EDT 5:38 PM EDT
Civil Twilight 6:56 AM EDT 6:08 PM EDT
Nautical Twilight 6:23 AM EDT 6:41 PM EDT
Astronomical Twilight 5:50 AM EDT 7:14 PM EDT
Moon 9:15 PM EDT 11:30 AM EDT
Length of Visible Light 11h 11m
Length of Day
10h 12m
Waning Gibbous, 80% of the Moon is Illuminated
Nov 3
Waning Gibbous
Nov 6
Last Quarter
Nov 13
New
Nov 20
First Quarter
Nov 28
Full

Hourly Weather History & Observations

Time (EDT) Temp. Windchill Dew Point Humidity Pressure Visibility Wind Dir Wind Speed Gust Speed Precip Events Conditions
12:52 AM 39.0 °F 36.8 °F 33.1 °F 79% 29.64 in 10.0 mi NW 3.5 mph - N/A   Clear
1:52 AM 39.0 °F 36.8 °F 33.1 °F 79% 29.65 in 10.0 mi NNW 3.5 mph - N/A   Overcast
2:52 AM 39.9 °F 37.8 °F 33.1 °F 77% 29.65 in 10.0 mi NNW 3.5 mph - N/A   Overcast
3:52 AM 39.9 °F 35.1 °F 33.1 °F 77% 29.66 in 10.0 mi NW 6.9 mph - N/A   Overcast
4:52 AM 41.0 °F 39.0 °F 33.1 °F 73% 29.67 in 10.0 mi NW 3.5 mph - N/A   Overcast
5:52 AM 41.0 °F 39.0 °F 32.0 °F 70% 29.68 in 10.0 mi North 3.5 mph - N/A   Overcast
6:52 AM 39.9 °F 37.8 °F 33.1 °F 77% 29.71 in 10.0 mi NNW 3.5 mph - N/A   Mostly Cloudy
7:52 AM 39.9 °F 35.8 °F 32.0 °F 73% 29.73 in 10.0 mi NNW 5.8 mph - N/A   Mostly Cloudy
8:52 AM 42.1 °F 36.1 °F 32.0 °F 67% 29.75 in 10.0 mi NW 10.4 mph - N/A   Clear
9:52 AM 44.1 °F 38.1 °F 32.0 °F 63% 29.75 in 10.0 mi WNW 11.5 mph - N/A   Partly Cloudy
10:52 AM 46.0 °F 40.2 °F 32.0 °F 58% 29.76 in 10.0 mi WNW 12.7 mph 16.1 mph N/A   Partly Cloudy
11:52 AM 46.0 °F 41.4 °F 32.0 °F 58% 29.76 in 10.0 mi West 9.2 mph - N/A   Mostly Cloudy
12:52 PM 48.0 °F - 32.0 °F 54% 29.74 in 10.0 mi NW 11.5 mph 19.6 mph N/A   Overcast
1:52 PM 48.0 °F - 30.9 °F 52% 29.75 in 10.0 mi NW 15.0 mph 19.6 mph N/A   Mostly Cloudy
2:52 PM 46.0 °F 41.9 °F 30.9 °F 56% 29.75 in 10.0 mi NW 8.1 mph - N/A   Overcast
3:52 PM 46.0 °F 40.6 °F 30.0 °F 54% 29.77 in 10.0 mi WNW 11.5 mph - N/A   Overcast
4:52 PM 45.0 °F 39.7 °F 30.0 °F 56% 29.78 in 10.0 mi NW 10.4 mph - N/A   Overcast
5:52 PM 44.1 °F 39.5 °F 28.9 °F 55% 29.80 in 10.0 mi NW 8.1 mph 18.4 mph N/A   Overcast
6:52 PM 43.0 °F 36.8 °F 28.0 °F 56% 29.81 in 10.0 mi NW 11.5 mph - N/A   Overcast
7:52 PM 42.1 °F 37.1 °F 28.0 °F 58% 29.82 in 10.0 mi WNW 8.1 mph - N/A   Overcast
8:52 PM 39.9 °F 35.8 °F 28.0 °F 63% 29.83 in 10.0 mi NW 5.8 mph - N/A   Clear
9:52 PM 39.9 °F 36.7 °F 28.0 °F 63% 29.84 in 10.0 mi WNW 4.6 mph - N/A   Clear
10:52 PM 34.0 °F - 28.0 °F 79% 29.85 in 10.0 mi Calm Calm - N/A   Clear
11:52 PM 30.9 °F - 27.0 °F 85% 29.85 in 10.0 mi Calm Calm - N/A   Clear